This demonstration page uses our WeatherBlox Daily Observations layout. Learn more.

Left ArrowRight Arrow

40.92945, -100.16068

Hourly Observations for October 16, 2021

Temp ( °F °C ) Dew Point ( °F °C ) Humidity (%) Winds ( mph kmh ) Pressure ( in mb ) Visibility ( mi km ) Precip ( " mm )
12:15 am 00:15 Clear 32 0.1 28 -2.4 83 83 W 3 6 30.35 1028 10 16 N/A
12:35 am 00:35 Clear 32 0.1 28 -2.5 83 83 NW 5 7 30.35 1028 10 16 N/A
12:55 am 00:55 Clear 32 -0.1 27 -2.8 82 82 NNW 7 11 30.35 1028 10 16 N/A
1:15 am 01:15 Clear 30 -1.2 26 -3.1 87 87 WNW 7 11 30.36 1028 10 16 N/A
1:35 am 01:35 Clear 30 -1 27 -3 86 86 WNW 7 11 30.37 1028 10 16 N/A
1:55 am 01:55 Clear 30 -1.3 26 -3.2 87 87 NW 8 13 30.37 1028 10 16 N/A
2:15 am 02:15 Clear 30 -1 26 -3.1 86 86 NW 6 9 30.37 1028 10 16 N/A
2:35 am 02:35 Clear 30 -1.3 26 -3.4 86 86 W 6 9 30.37 1028 10 16 N/A
2:55 am 02:55 Clear 29 -1.5 26 -3.3 88 88 W 7 11 30.37 1029 10 16 N/A
3:15 am 03:15 Clear 29 -1.5 26 -3.2 88 88 W 7 11 30.38 1029 10 16 N/A
3:35 am 03:35 Clear 30 -1.1 27 -3 87 87 W 7 11 30.38 1029 10 16 N/A
3:55 am 03:55 Clear 30 -1.3 27 -3 88 88 WNW 6 9 30.38 1029 10 16 N/A
4:15 am 04:15 Clear 29 -1.7 26 -3.5 88 88 WNW 7 11 30.39 1029 10 16 N/A
4:35 am 04:35 Clear 31 -0.7 27 -2.8 86 86 WNW 7 11 30.37 1029 10 16 N/A
4:55 am 04:55 Clear 29 -1.5 26 -3.1 89 89 NW 6 9 30.38 1029 10 16 N/A
5:15 am 05:15 Clear 28 -2 26 -3.6 89 89 WNW 6 9 30.40 1029 10 16 N/A
5:35 am 05:35 Clear 29 -1.9 26 -3.5 89 89 W 6 9 30.41 1030 10 16 N/A
5:55 am 05:55 Clear 29 -1.7 26 -3.4 88 88 NW 6 9 30.41 1030 10 16 N/A
6:15 am 06:15 Clear 28 -2.2 26 -3.6 90 90 WNW 6 9 30.41 1030 10 16 N/A
6:35 am 06:35 Clear 28 -2.1 26 -3.6 90 90 N N/A 30.41 1030 10 16 N/A
6:55 am 06:55 Clear 28 -2.2 25 -4 88 88 WNW 7 11 30.41 1030 10 16 N/A
7:15 am 07:15 Clear 28 -2.4 25 -4 89 89 W 3 6 30.42 1030 10 16 N/A
7:35 am 07:35 Clear 28 -2.4 25 -3.8 90 90 N N/A 30.42 1030 10 16 N/A
7:55 am 07:55 Sunny 28 -2.3 25 -3.7 90 90 W 3 6 30.42 1030 10 16 N/A
8:15 am 08:15 Sunny 28 -2.5 25 -3.7 92 92 WSW 3 6 30.42 1030 10 16 N/A
8:35 am 08:35 Sunny 29 -1.4 27 -2.9 90 90 W 3 6 30.40 1030 10 16 N/A
8:55 am 08:55 Sunny 32 -0.1 29 -1.8 88 88 WNW 3 6 30.40 1029 10 16 N/A
9:15 am 09:15 Partly Cloudy 34 1.3 30 -1.1 84 84 W 3 6 30.39 1029 10 16 N/A
9:35 am 09:35 Sunny 38 3.2 32 0.1 80 80 NW 3 6 30.38 1029 10 16 N/A
9:55 am 09:55 Sunny 42 5.3 32 0.2 70 70 W 7 11 30.36 1028 10 16 N/A
10:15 am 10:15 Sunny 43 6.3 33 0.3 66 66 WNW 12 19 30.35 1028 10 16 N/A
10:35 am 10:35 Sunny 46 7.5 33 0.4 61 61 WNW 15 24 30.33 1027 10 16 N/A
10:55 am 10:55 Sunny 48 9.1 34 1 57 57 WNW 13 20 30.32 1027 10 16 N/A
11:15 am 11:15 Sunny 50 10 34 0.9 54 54 WNW 8 13 30.31 1026 10 16 N/A
11:35 am 11:35 Sunny 52 11.2 35 1.4 51 51 WNW 7 11 30.30 1026 10 16 N/A
11:55 am 11:55 Sunny 55 12.7 35 1.6 47 47 W 7 11 30.29 1026 10 16 N/A
12:15 pm 12:15 Sunny 58 14.2 35 1.7 43 43 WNW 8 13 30.26 1025 10 16 N/A
12:35 pm 12:35 Sunny 60 15.5 34 1.1 38 38 W 7 11 30.25 1024 10 16 N/A
12:55 pm 12:55 Sunny 62 16.4 32 undefined 33 33 W 7 11 30.23 1024 10 16 N/A
1:15 pm 13:15 Sunny 63 17 32 undefined 32 32 W 10 17 30.23 1024 10 16 N/A
1:35 pm 13:35 Sunny 63 17.2 31 -0.7 30 30 W 10 17 30.22 1023 10 16 N/A
1:55 pm 13:55 Sunny 63 17.3 30 -0.9 29 29 W 10 17 30.20 1023 10 16 N/A
2:15 pm 14:15 Sunny 64 18 32 -0.2 29 29 WNW 9 15 30.19 1022 10 16 N/A
2:35 pm 14:35 Sunny 65 18.4 31 -0.4 28 28 WNW 8 13 30.19 1022 10 16 N/A
2:55 pm 14:55 Sunny 66 18.7 31 -0.4 28 28 WNW 10 17 30.17 1022 10 16 N/A
3:15 pm 15:15 Sunny 66 18.7 31 -0.3 28 28 NW 10 17 30.17 1022 10 16 N/A
3:35 pm 15:35 Sunny 66 18.9 32 undefined 28 28 WNW 6 9 30.16 1021 10 16 N/A
3:55 pm 15:55 Sunny 67 19.2 32 0.1 28 28 W 8 13 30.16 1021 10 16 N/A
4:15 pm 16:15 Sunny 67 19.4 32 undefined 27 27 W 10 17 30.16 1021 10 16 N/A
4:35 pm 16:35 Sunny 67 19.2 33 0.3 28 28 WNW 9 15 30.16 1021 10 16 N/A
4:55 pm 16:55 Sunny 67 19.2 33 0.5 29 29 WNW 7 11 30.16 1021 10 16 N/A
5:15 pm 17:15 Sunny 66 19 35 1.4 31 31 WNW 9 15 30.16 1021 10 16 N/A
5:35 pm 17:35 Sunny 66 18.9 34 1.2 31 31 WNW 3 6 30.15 1021 10 16 N/A
5:55 pm 17:55 Sunny 65 18.5 37 2.9 36 36 WNW 3 6 30.15 1021 10 16 N/A
6:15 pm 18:15 Sunny 64 18 37 2.8 36 36 N N/A 30.15 1021 10 16 N/A
6:35 pm 18:35 Sunny 63 17.4 38 3.5 40 40 N N/A 30.15 1021 10 16 N/A
6:55 pm 18:55 Sunny 61 16.1 38 3.1 42 42 S 3 6 30.17 1022 10 16 N/A
7:15 pm 19:15 Clear 58 14.7 36 2.4 44 44 S 5 7 30.18 1022 10 16 N/A
7:35 pm 19:35 Clear 54 12.3 37 2.9 53 53 S 6 9 30.21 1023 10 16 N/A
7:55 pm 19:55 Clear 52 11 38 3.1 59 59 S 3 6 30.22 1023 10 16 N/A
8:15 pm 20:15 Clear 49 9.7 38 3.4 65 65 S 5 7 30.24 1024 10 16 N/A
8:35 pm 20:35 Clear 49 9.3 38 3.5 67 67 SSE 5 7 30.25 1024 10 16 N/A
8:55 pm 20:55 Clear 50 9.9 38 3.2 63 63 S 3 6 30.24 1024 10 16 N/A
9:15 pm 21:15 Clear 47 8.6 37 2.9 68 68 S 3 6 30.25 1025 10 16 N/A
9:35 pm 21:35 Clear 46 7.8 37 2.6 70 70 S 3 6 30.26 1025 10 16 N/A
9:55 pm 21:55 Clear 46 7.8 37 2.5 69 69 N N/A 30.27 1025 10 16 N/A
10:15 pm 22:15 Clear 41 5 36 2.2 82 82 N N/A 30.29 1026 10 16 N/A
10:35 pm 22:35 Clear 42 5.7 37 2.5 80 80 N N/A 30.29 1026 10 16 N/A
10:55 pm 22:55 Clear 40 4.6 36 2.1 84 84 N N/A 30.30 1026 10 16 N/A
11:15 pm 23:15 Clear 40 4.5 36 2.1 85 85 N N/A 30.30 1026 10 16 N/A
11:35 pm 23:35 Clear 39 3.8 35 1.6 86 86 N N/A 30.30 1026 10 16 N/A
11:55 pm 23:55 Clear 39 3.8 35 1.5 85 85 N N/A 30.30 1026 10 16 N/A

Powered by AerisWeather